CDT,Max TemperatureF,Mean TemperatureF,Min TemperatureF,Max Dew PointF,MeanDew PointF,Min DewpointF,Max Humidity, Mean Humidity, Min Humidity, Max Sea Level PressureIn, Mean Sea Level PressureIn, Min Sea Level PressureIn, Max VisibilityMiles, Mean VisibilityMiles, Min VisibilityMiles, Max Wind SpeedMPH, Mean Wind SpeedMPH, Max Gust SpeedMPH,PrecipitationIn, CloudCover, Events, WindDirDegrees
2012-10-1,87,78,68,67,64,62,84,65,46,29.91,29.86,29.81,10,10,10,14,5,17,0.00,0,,14
2012-10-2,91,79,67,67,62,55,90,61,32,29.99,29.93,29.88,10,10,10,17,5,25,0.00,1,,357
2012-10-3,92,80,68,74,68,63,90,70,49,30.01,29.97,29.92,10,10,10,23,11,30,0.00,0,,149
2012-10-4,92,82,72,74,72,69,94,73,52,30.09,30.04,30.00,10,10,10,24,12,30,0.00,0,,157
2012-10-5,90,79,68,72,67,64,97,71,44,30.09,30.03,29.97,10,10,10,14,7,20,0.00,0,,130
2012-10-6,91,78,65,72,68,64,100,78,55,29.98,29.94,29.88,10,10,10,17,5,23,0.00,1,,106
2012-10-7,85,76,66,72,69,64,93,77,61,30.07,30.01,29.94,10,9,6,22,10,30,0.07,5,Rain,14
2012-10-8,69,66,63,63,59,55,87,75,63,30.15,30.09,30.06,10,10,6,20,11,25,0.01,8,Rain,331
2012-10-9,87,75,63,76,69,59,91,76,61,30.07,29.99,29.93,10,10,10,17,7,23,0.00,5,,102
2012-10-10,91,83,74,77,75,73,100,78,56,30.04,29.99,29.95,10,10,8,21,9,25,0.00,1,,134
2012-10-11,91,84,76,76,74,72,94,77,59,30.10,30.05,30.00,10,10,10,22,10,29,0.00,2,,123
2012-10-12,91,84,76,78,75,74,100,82,64,30.12,30.06,30.02,10,10,6,20,9,26,0.02,3,Rain,120
2012-10-13,89,83,76,77,74,72,100,80,59,30.07,30.02,29.93,10,10,7,28,14,36,0.11,4,Rain,149
2012-10-14,90,81,72,74,70,67,93,72,50,30.03,29.97,29.92,10,10,10,23,10,29,0.00,2,,145
2012-10-15,91,81,71,72,70,67,93,70,47,30.05,29.99,29.92,10,10,7,13,4,18,0.00,1,,77
2012-10-16,92,82,72,73,69,64,93,69,44,29.95,29.86,29.76,10,10,9,17,6,22,0.00,1,,155
2012-10-17,91,82,73,75,71,67,93,72,50,29.80,29.74,29.66,10,10,9,22,11,28,0.00,0,,171
2012-10-18,97,88,78,78,76,70,97,70,42,29.86,29.76,29.71,10,8,5,20,10,24,T,1,,160
2012-10-19,91,83,75,77,75,68,97,77,56,29.96,29.90,29.86,10,5,0,17,6,24,0.59,4,Fog-Rain-Thunderstorm,47
2012-10-20,91,83,74,77,74,71,100,78,56,29.92,29.88,29.81,10,8,4,21,9,28,0.00,1,,148
2012-10-21,91,83,75,74,72,69,94,72,49,29.94,29.89,29.86,10,10,8,23,12,32,0.00,1,,150
2012-10-22,90,82,74,75,72,71,94,77,59,29.95,29.92,29.88,10,10,10,23,11,30,T,3,,141
2012-10-23,90,81,71,71,70,68,87,70,52,29.95,29.91,29.88,10,10,10,17,9,23,0.00,2,,125
2012-10-24,91,81,70,70,68,65,90,67,44,29.96,29.91,29.86,10,10,10,17,7,21,0.00,1,,136
2012-10-25,91,81,70,74,71,68,100,76,52,29.89,29.84,29.79,10,10,10,20,8,25,0.00,2,,146
2012-10-26,91,74,57,72,67,49,93,72,50,30.14,29.96,29.87,10,10,9,25,10,33,T,4,Rain,42
2012-10-27,70,63,55,50,46,42,77,59,40,30.22,30.15,30.09,10,10,10,23,13,33,0.00,6,,332
2012-10-28,75,66,56,51,46,41,61,48,35,30.21,30.16,30.12,10,10,10,16,9,22,0.00,7,,346
2012-10-29,79,68,57,56,51,46,78,59,39,30.22,30.16,30.11,10,10,10,15,6,21,0.00,3,,27
2012-10-30,83,70,57,64,60,54,93,71,49,30.12,30.04,29.97,10,10,10,17,6,23,0.00,2,,134
2012-10-31,90,78,66,71,68,65,93,70,47,30.02,29.98,29.93,10,10,8,21,9,25,0.00,1,,156